Fastsat-HSV

operational
NORAD ID: 37225 Int'l Des: 2010-062 Owner: AFSMC Country: US
LEOCIRCULAR

About Fastsat-HSV

Description loading...

Live Position

Loading 3D Globe...

Upcoming Passes

Altitude History

Altitude vs Time

uPlot chart will show altitude changes over time

Two-Line Element Set

1 37225U 10062D 26062.32886523 .00001075 00000-0 14237-3 0 9994
2 37225 71.9725 35.1309 0017935 320.9222 39.0646 14.82007535 98446
Epoch: Mar 3, 2026 • Age: 41 hours

Current Status

Altitude 640.1 km
Velocity 7.53 km/s
Sub-Earth Point 36.80°N, 141.68°E
Launch Date Nov 20, 2010
Age 15.2 years
Type other

Technical Details

Classification Payload
Mass 148.00 kg
Dry Mass 148.00 kg
Total Mass 148.00 kg
Length 1.00 m
Diameter 0.70 m
Span 5.00 m
Shape Box + Ant
Manufacturer DYNT
Bus Type FASTSAT
Phase Status In Orbit
Owner/State AFSMC/US

Large Constellations

Loading constellations...